Starlink 31776

operational
NORAD ID: 59603 Int'l Des: 2024-080 Owner: SPXS Country: US Constellation: starlink
LEOCIRCULAR

About Starlink 31776

Description loading...

Live Position

Loading 3D Globe...

Upcoming Passes

Altitude History

Altitude vs Time

uPlot chart will show altitude changes over time

Two-Line Element Set

1 59603U 24080C 25257.43410306 .00000086 00000-0 12663-4 0 9995
2 59603 43.0047 317.0240 0001223 242.6394 117.4334 15.27576688 77538
Epoch: Sep 14, 2025 • Age: 34 hours

Current Status

Altitude 489.5 km
Velocity 7.62 km/s
Sub-Earth Point -26.83°S, 30.21°W
Launch Date Apr 28, 2024
Age 1.3 years
Type internet

Technical Details

Classification Payload
Mass 730.00 kg
Dry Mass 700.00 kg
Total Mass 730.00 kg
Length 0.30 m
Diameter 4.10 m
Span 29.00 m
Shape Box + pan
Manufacturer SPXS
Bus Type Starlink V2M
Phase Status In Orbit
Owner/State SPXS/US

Large Constellations

Loading constellations...